Powrót do katalogu

COSMOS 2416

AktywnyNawigacjaPO
NORAD 28908·PAYLOAD·🇷🇺 Russia

Wystrzelony Dec 21, 2005 z Plesetsk Cosmodrome

Loading…

Następne Przeloty (najbliższe 24 godziny)

TLE

ŚwieżeSource: Space-Track

Epoka: Sep 14, 2026, 11:08 UTC

1 28908U 05048A   26257.46402036 -.00000003  00000-0 -80830-4 0  9999
2 28908  82.4633 250.5560 0007431 340.0817 186.8164 12.55603222950103

Śledź COSMOS 2416 w czasie rzeczywistym z AllMySat

Download on the App Store